Year,Month,Day,Hour,Minute,Value (Times are PST for temperature in C)
2009,09,23,10,22,20.10
2009,09,23,10,23,20.20
2009,09,23,10,24,20.20
2009,09,23,10,25,20.30
2009,09,23,10,26,20.30
2009,09,23,10,27,20.40
2009,09,23,10,28,20.50
2009,09,23,10,29,20.60
2009,09,23,10,30,20.70
2009,09,23,10,31,20.70
2009,09,23,10,32,20.80
2009,09,23,10,33,20.80
2009,09,23,10,34,20.80
2009,09,23,10,35,20.70
2009,09,23,10,36,20.70
2009,09,23,10,37,20.60
2009,09,23,10,38,20.60
2009,09,23,10,39,20.60
2009,09,23,10,40,20.60
2009,09,23,10,41,20.60
2009,09,23,10,42,20.60
2009,09,23,10,43,20.70
2009,09,23,10,44,20.70
2009,09,23,10,45,20.80
2009,09,23,10,46,20.80
2009,09,23,10,47,20.80
2009,09,23,10,48,20.90
2009,09,23,10,49,20.90
2009,09,23,10,50,21.00
2009,09,23,10,51,21.10
2009,09,23,10,52,21.10
2009,09,23,10,53,21.10
2009,09,23,10,54,21.20
2009,09,23,10,55,21.20
2009,09,23,10,56,21.20
2009,09,23,10,57,21.10
2009,09,23,10,58,21.10
2009,09,23,10,59,21.20
2009,09,23,11,00,21.20
2009,09,23,11,01,21.20
2009,09,23,11,02,21.20
2009,09,23,11,03,21.20
2009,09,23,11,04,21.20
2009,09,23,11,05,21.10
2009,09,23,11,06,21.10
2009,09,23,11,07,21.10
2009,09,23,11,08,21.10
2009,09,23,11,09,21.10
2009,09,23,11,10,21.10
2009,09,23,11,11,21.10
2009,09,23,11,12,21.10
2009,09,23,11,13,21.00
2009,09,23,11,14,21.00
2009,09,23,11,15,21.00
2009,09,23,11,16,21.10
2009,09,23,11,17,21.10
2009,09,23,11,18,21.20
2009,09,23,11,19,21.20
2009,09,23,11,20,21.20
2009,09,23,11,21,21.20
2009,09,23,11,22,21.20
2009,09,23,11,23,21.20
2009,09,23,11,24,21.20
2009,09,23,11,25,21.30
2009,09,23,11,26,21.30
2009,09,23,11,27,21.40
2009,09,23,11,28,21.50
2009,09,23,11,29,21.50
2009,09,23,11,30,21.60
2009,09,23,11,31,21.70
2009,09,23,11,32,21.70
2009,09,23,11,33,21.70
2009,09,23,11,34,21.70
2009,09,23,11,35,21.70
2009,09,23,11,36,21.70
2009,09,23,11,37,21.70
2009,09,23,11,38,21.70
2009,09,23,11,39,21.70
2009,09,23,11,40,21.70
2009,09,23,11,41,21.80
2009,09,23,11,42,21.80
2009,09,23,11,43,21.80
2009,09,23,11,44,21.70
2009,09,23,11,45,21.70
2009,09,23,11,46,21.70
2009,09,23,11,47,21.70
2009,09,23,11,48,21.70
2009,09,23,11,49,21.80
2009,09,23,11,50,21.80
2009,09,23,11,51,21.80
2009,09,23,11,52,21.70
2009,09,23,11,53,21.70
2009,09,23,11,54,21.60
2009,09,23,11,55,21.60
2009,09,23,11,56,21.60
2009,09,23,11,57,21.60
2009,09,23,11,58,21.60
2009,09,23,11,59,21.70
2009,09,23,12,00,21.70
2009,09,23,12,01,21.70
2009,09,23,12,02,21.70
2009,09,23,12,03,21.70
2009,09,23,12,04,21.60
2009,09,23,12,05,21.60
2009,09,23,12,06,21.60
2009,09,23,12,07,21.60
2009,09,23,12,08,21.70
2009,09,23,12,09,21.70
2009,09,23,12,10,21.70
2009,09,23,12,11,21.70
2009,09,23,12,12,21.70
2009,09,23,12,13,21.70
2009,09,23,12,14,21.70
2009,09,23,12,15,21.70
2009,09,23,12,16,21.70
2009,09,23,12,17,21.70
2009,09,23,12,18,21.60
2009,09,23,12,19,21.60
2009,09,23,12,20,21.60
2009,09,23,12,21,21.60
2009,09,23,12,22,21.70
2009,09,23,12,23,21.70
2009,09,23,12,24,21.80
2009,09,23,12,25,21.80
2009,09,23,12,26,21.90
2009,09,23,12,27,21.90
2009,09,23,12,28,22.00
2009,09,23,12,29,22.10
2009,09,23,12,30,22.10
2009,09,23,12,31,22.20
2009,09,23,12,32,22.20
2009,09,23,12,33,22.30
2009,09,23,12,34,22.40
2009,09,23,12,35,22.40
2009,09,23,12,36,22.40
2009,09,23,12,37,22.40
2009,09,23,12,38,22.40
2009,09,23,12,39,22.40
2009,09,23,12,40,22.50
2009,09,23,12,41,22.50
2009,09,23,12,42,22.60
2009,09,23,12,43,22.60
2009,09,23,12,44,22.50
2009,09,23,12,45,22.50
2009,09,23,12,46,22.40
2009,09,23,12,47,22.40
2009,09,23,12,48,22.40
2009,09,23,12,49,22.40
2009,09,23,12,50,22.40
2009,09,23,12,51,22.40
2009,09,23,12,52,22.40
2009,09,23,12,53,22.30
2009,09,23,12,54,22.20
2009,09,23,12,55,22.10
2009,09,23,12,56,22.00
2009,09,23,12,57,21.80
2009,09,23,12,58,21.80
2009,09,23,12,59,21.70
2009,09,23,13,00,21.70
2009,09,23,13,01,21.70
2009,09,23,13,02,21.60
2009,09,23,13,03,21.70
2009,09,23,13,04,21.70
2009,09,23,13,05,21.70
2009,09,23,13,06,21.70
2009,09,23,13,07,21.70
2009,09,23,13,08,21.70
2009,09,23,13,09,21.60
2009,09,23,13,10,21.60
2009,09,23,13,11,21.60
2009,09,23,13,12,21.60
2009,09,23,13,13,21.70
2009,09,23,13,14,21.70
2009,09,23,13,15,21.60
2009,09,23,13,16,21.70
2009,09,23,13,17,21.60
2009,09,23,13,18,21.70
2009,09,23,13,19,21.70
2009,09,23,13,20,21.70
2009,09,23,13,21,21.80
2009,09,23,13,22,21.80
2009,09,23,13,23,21.80
2009,09,23,13,24,21.90
2009,09,23,13,25,21.90
2009,09,23,13,26,22.00
2009,09,23,13,27,22.10
2009,09,23,13,28,22.10
2009,09,23,13,29,22.20
2009,09,23,13,30,22.20
2009,09,23,13,31,22.20
2009,09,23,13,32,22.20
2009,09,23,13,33,22.30
2009,09,23,13,34,22.40
2009,09,23,13,35,22.50
2009,09,23,13,36,22.60
2009,09,23,13,37,22.70
2009,09,23,13,38,22.70
2009,09,23,13,39,22.80
2009,09,23,13,40,22.80
2009,09,23,13,41,22.90
2009,09,23,13,42,23.00
2009,09,23,13,43,23.00
2009,09,23,13,44,23.10
2009,09,23,13,45,23.10
2009,09,23,13,46,23.10
2009,09,23,13,47,23.20
2009,09,23,13,48,23.20
2009,09,23,13,49,23.20
2009,09,23,13,50,23.30
2009,09,23,13,51,23.40
2009,09,23,13,52,23.60
2009,09,23,13,53,23.90
2009,09,23,13,54,24.30
2009,09,23,13,55,24.70
2009,09,23,13,56,24.90
2009,09,23,13,57,25.10
2009,09,23,13,58,25.10
2009,09,23,13,59,25.10
2009,09,23,14,00,25.00
2009,09,23,14,01,25.00
2009,09,23,14,02,25.00
2009,09,23,14,03,25.10
2009,09,23,14,04,25.20
2009,09,23,14,05,25.30
2009,09,23,14,06,25.40
2009,09,23,14,07,25.70
2009,09,23,14,08,25.90
2009,09,23,14,09,26.20
2009,09,23,14,10,26.40
2009,09,23,14,11,26.60
2009,09,23,14,12,26.90
2009,09,23,14,13,27.10
2009,09,23,14,14,27.20
2009,09,23,14,15,27.40
2009,09,23,14,16,27.60
2009,09,23,14,17,27.70
2009,09,23,14,18,27.80
2009,09,23,14,19,27.90
2009,09,23,14,20,27.90
2009,09,23,14,21,28.00
2009,09,23,14,22,28.10
2009,09,23,14,23,28.10
2009,09,23,14,24,28.10
2009,09,23,14,25,28.00
2009,09,23,14,26,28.00
2009,09,23,14,27,28.00
2009,09,23,14,28,28.10
2009,09,23,14,29,28.10
2009,09,23,14,30,28.20
2009,09,23,14,31,28.20
2009,09,23,14,32,28.30
2009,09,23,14,33,28.30
2009,09,23,14,34,28.30
2009,09,23,14,35,28.30
2009,09,23,14,36,28.30
2009,09,23,14,37,28.30
2009,09,23,14,38,28.30
2009,09,23,14,39,28.40
2009,09,23,14,40,28.40
2009,09,23,14,41,28.40
2009,09,23,14,42,28.50
2009,09,23,14,43,28.50
2009,09,23,14,44,28.50
2009,09,23,14,45,28.60
2009,09,23,14,46,28.60
2009,09,23,14,47,28.60
2009,09,23,14,48,28.60
2009,09,23,14,49,28.60
2009,09,23,14,50,28.60
2009,09,23,14,51,28.60
2009,09,23,14,52,28.60
2009,09,23,14,53,28.60
2009,09,23,14,54,28.60
2009,09,23,14,55,28.60
2009,09,23,14,56,28.70
2009,09,23,14,57,28.70
2009,09,23,14,58,28.70
2009,09,23,14,59,28.70
2009,09,23,15,00,28.80
2009,09,23,15,01,28.80
2009,09,23,15,02,28.80
2009,09,23,15,03,28.80
2009,09,23,15,04,28.80
2009,09,23,15,05,28.80
2009,09,23,15,06,28.70
2009,09,23,15,07,28.70
2009,09,23,15,08,28.70
2009,09,23,15,09,28.70
2009,09,23,15,10,28.60
2009,09,23,15,11,28.50
2009,09,23,15,12,28.40
2009,09,23,15,13,28.30
2009,09,23,15,14,28.30
2009,09,23,15,15,28.30
2009,09,23,15,16,28.20
2009,09,23,15,17,28.20
2009,09,23,15,18,28.20
2009,09,23,15,19,28.20
2009,09,23,15,20,28.10
2009,09,23,15,21,28.10
2009,09,23,15,22,28.10
2009,09,23,15,23,28.20
2009,09,23,15,24,28.20
2009,09,23,15,25,28.20
2009,09,23,15,26,28.20
2009,09,23,15,27,28.20
2009,09,23,15,28,28.20
2009,09,23,15,29,28.20
2009,09,23,15,30,28.10
2009,09,23,15,31,28.00
2009,09,23,15,32,27.90
2009,09,23,15,33,27.90
2009,09,23,15,34,27.90
2009,09,23,15,35,27.90
2009,09,23,15,36,27.90
2009,09,23,15,37,27.90
2009,09,23,15,38,27.90
2009,09,23,15,39,27.90
2009,09,23,15,40,27.90
2009,09,23,15,41,27.80
2009,09,23,15,42,27.80
2009,09,23,15,43,27.80
2009,09,23,15,44,27.80
2009,09,23,15,45,27.80
2009,09,23,15,46,27.80
2009,09,23,15,47,27.80
2009,09,23,15,48,27.80
2009,09,23,15,49,27.80
2009,09,23,15,50,27.80
2009,09,23,15,51,27.80
2009,09,23,15,52,27.80
2009,09,23,15,53,27.80
2009,09,23,15,54,27.80
2009,09,23,15,55,27.90
2009,09,23,15,56,27.90
2009,09,23,15,57,27.90
2009,09,23,15,58,27.90
2009,09,23,15,59,27.90
2009,09,23,16,00,27.90
2009,09,23,16,01,27.90
2009,09,23,16,02,27.80
2009,09,23,16,03,27.80
2009,09,23,16,04,27.80
2009,09,23,16,05,27.80
2009,09,23,16,06,27.80
2009,09,23,16,07,27.80
2009,09,23,16,08,27.80
2009,09,23,16,09,27.80
2009,09,23,16,10,27.80
2009,09,23,16,11,27.90
2009,09,23,16,12,27.80
2009,09,23,16,13,27.80
2009,09,23,16,14,27.80
2009,09,23,16,15,27.80
2009,09,23,16,16,27.80
2009,09,23,16,17,27.80
2009,09,23,16,18,27.80
2009,09,23,16,19,27.90
2009,09,23,16,20,27.80
2009,09,23,16,21,27.80
2009,09,23,16,22,27.80
2009,09,23,16,23,27.70
2009,09,23,16,24,27.70
2009,09,23,16,25,27.70
2009,09,23,16,26,27.80
2009,09,23,16,27,27.70
2009,09,23,16,28,27.70
2009,09,23,16,29,27.70
2009,09,23,16,30,27.60
2009,09,23,16,31,27.50
2009,09,23,16,32,27.40
2009,09,23,16,33,27.40
2009,09,23,16,34,27.30
2009,09,23,16,35,27.30
2009,09,23,16,36,27.30
2009,09,23,16,37,27.20
2009,09,23,16,38,27.20
2009,09,23,16,39,27.20
2009,09,23,16,40,27.20
2009,09,23,16,41,27.20
2009,09,23,16,42,27.30
2009,09,23,16,43,27.30
2009,09,23,16,44,27.30
2009,09,23,16,45,27.30
2009,09,23,16,46,27.30
2009,09,23,16,47,27.20
2009,09,23,16,48,27.20
2009,09,23,16,49,27.10
2009,09,23,16,50,27.10
2009,09,23,16,51,27.00
2009,09,23,16,52,27.00
2009,09,23,16,53,27.00
2009,09,23,16,54,26.90
2009,09,23,16,55,26.90
2009,09,23,16,56,26.90
2009,09,23,16,57,27.00
2009,09,23,16,58,27.00
2009,09,23,16,59,27.00
2009,09,23,17,00,27.00
2009,09,23,17,01,27.00
2009,09,23,17,02,26.90
2009,09,23,17,03,26.90
2009,09,23,17,04,26.90
2009,09,23,17,05,26.80
2009,09,23,17,06,26.80
2009,09,23,17,07,26.80
2009,09,23,17,08,26.70
2009,09,23,17,09,26.70
2009,09,23,17,10,26.60
2009,09,23,17,11,26.60
2009,09,23,17,12,26.50
2009,09,23,17,13,26.50
2009,09,23,17,14,26.50
2009,09,23,17,15,26.50
2009,09,23,17,16,26.40
2009,09,23,17,17,26.40
2009,09,23,17,18,26.30
2009,09,23,17,19,26.30
2009,09,23,17,20,26.30
2009,09,23,17,21,26.20
2009,09,23,17,22,26.20
2009,09,23,17,23,26.20
2009,09,23,17,24,26.20
2009,09,23,17,25,26.10
2009,09,23,17,26,26.10
2009,09,23,17,27,26.10
2009,09,23,17,28,26.10
2009,09,23,17,29,26.10
2009,09,23,17,30,26.10
2009,09,23,17,31,26.10
2009,09,23,17,32,26.10
2009,09,23,17,33,26.00
2009,09,23,17,34,26.00
2009,09,23,17,35,26.00
2009,09,23,17,36,25.90
2009,09,23,17,37,25.90
2009,09,23,17,38,25.90
2009,09,23,17,39,25.80
2009,09,23,17,40,25.70
2009,09,23,17,41,25.70
2009,09,23,17,42,25.60
2009,09,23,17,43,25.60
2009,09,23,17,44,25.50
2009,09,23,17,45,25.50
2009,09,23,17,46,25.40
2009,09,23,17,47,25.40
2009,09,23,17,48,25.40
2009,09,23,17,49,25.40
2009,09,23,17,50,25.30
2009,09,23,17,51,25.30
2009,09,23,17,52,25.30
2009,09,23,17,53,25.20
2009,09,23,17,54,25.20
2009,09,23,17,55,25.20
2009,09,23,17,56,25.10
2009,09,23,17,57,25.10
2009,09,23,17,58,25.00
2009,09,23,17,59,25.00
2009,09,23,18,00,24.90
2009,09,23,18,01,24.90
2009,09,23,18,02,24.80
2009,09,23,18,03,24.70
2009,09,23,18,04,24.70
2009,09,23,18,05,24.60
2009,09,23,18,06,24.50
2009,09,23,18,07,24.50
2009,09,23,18,08,24.40
2009,09,23,18,09,24.40
2009,09,23,18,10,24.30
2009,09,23,18,11,24.30
2009,09,23,18,12,24.20
2009,09,23,18,13,24.10
2009,09,23,18,14,24.10
2009,09,23,18,15,24.00
2009,09,23,18,16,24.00
2009,09,23,18,17,23.90
2009,09,23,18,18,23.80
2009,09,23,18,19,23.80
2009,09,23,18,20,23.70
2009,09,23,18,21,23.70
2009,09,23,18,22,23.60
2009,09,23,18,23,23.60
2009,09,23,18,24,23.50
2009,09,23,18,25,23.50
2009,09,23,18,26,23.40
2009,09,23,18,27,23.40
2009,09,23,18,28,23.30
2009,09,23,18,29,23.30
2009,09,23,18,30,23.30
2009,09,23,18,31,23.20
2009,09,23,18,32,23.20
2009,09,23,18,33,23.20
2009,09,23,18,34,23.10
2009,09,23,18,35,23.00
2009,09,23,18,36,23.00
2009,09,23,18,37,22.90
2009,09,23,18,38,22.80
2009,09,23,18,39,22.80
2009,09,23,18,40,22.70
2009,09,23,18,41,22.60
2009,09,23,18,42,22.50
2009,09,23,18,43,22.40
2009,09,23,18,44,22.30
2009,09,23,18,45,22.30
2009,09,23,18,46,22.20
2009,09,23,18,47,22.20
2009,09,23,18,48,22.10
2009,09,23,18,49,22.00
2009,09,23,18,50,21.90
2009,09,23,18,51,21.80
2009,09,23,18,52,21.80
2009,09,23,18,53,21.80
2009,09,23,18,54,21.70
2009,09,23,18,55,21.70
2009,09,23,18,56,21.60
2009,09,23,18,57,21.60
2009,09,23,18,58,21.60
2009,09,23,18,59,21.50
2009,09,23,19,00,21.50
2009,09,23,19,01,21.40
2009,09,23,19,02,21.40
2009,09,23,19,03,21.30
2009,09,23,19,04,21.30
2009,09,23,19,05,21.30
2009,09,23,19,06,21.20
2009,09,23,19,07,21.20
2009,09,23,19,08,21.10
2009,09,23,19,09,21.10
2009,09,23,19,10,21.00
2009,09,23,19,11,20.90
2009,09,23,19,12,20.80
2009,09,23,19,13,20.80
2009,09,23,19,14,20.70
2009,09,23,19,15,20.70
2009,09,23,19,16,20.60
2009,09,23,19,17,20.60
2009,09,23,19,18,20.50
2009,09,23,19,19,20.40
2009,09,23,19,20,20.40
2009,09,23,19,21,20.30
2009,09,23,19,22,20.20
2009,09,23,19,23,20.20
2009,09,23,19,24,20.10
2009,09,23,19,25,20.00
2009,09,23,19,26,20.00
2009,09,23,19,27,19.90
2009,09,23,19,28,19.90
2009,09,23,19,29,19.80
2009,09,23,19,30,19.80
2009,09,23,19,31,19.70
2009,09,23,19,32,19.70
2009,09,23,19,33,19.70
2009,09,23,19,34,19.70
2009,09,23,19,35,19.60
2009,09,23,19,36,19.60
2009,09,23,19,37,19.50
2009,09,23,19,38,19.50
2009,09,23,19,39,19.40
2009,09,23,19,40,19.40
2009,09,23,19,41,19.40
2009,09,23,19,42,19.30
2009,09,23,19,43,19.30
2009,09,23,19,44,19.30
2009,09,23,19,45,19.30
2009,09,23,19,46,19.20
2009,09,23,19,47,19.20
2009,09,23,19,48,19.20
2009,09,23,19,49,19.10
2009,09,23,19,50,19.10
2009,09,23,19,51,19.00
2009,09,23,19,52,19.00
2009,09,23,19,53,19.00
2009,09,23,19,54,18.90
2009,09,23,19,55,18.90
2009,09,23,19,56,18.80
2009,09,23,19,57,18.80
2009,09,23,19,58,18.80
2009,09,23,19,59,18.80
2009,09,23,20,00,18.80
2009,09,23,20,01,18.70
2009,09,23,20,02,18.70
2009,09,23,20,03,18.70
2009,09,23,20,04,18.70
2009,09,23,20,05,18.70
2009,09,23,20,06,18.60
2009,09,23,20,07,18.60
2009,09,23,20,08,18.60
2009,09,23,20,09,18.50
2009,09,23,20,10,18.40
2009,09,23,20,11,18.30
2009,09,23,20,12,18.30
2009,09,23,20,13,18.20
2009,09,23,20,14,18.10
2009,09,23,20,15,18.00
2009,09,23,20,16,17.90
2009,09,23,20,17,17.80
2009,09,23,20,18,17.70
2009,09,23,20,19,17.60
2009,09,23,20,20,17.50
2009,09,23,20,21,17.40
2009,09,23,20,22,17.30
2009,09,23,20,23,17.20
2009,09,23,20,24,17.20
2009,09,23,20,25,17.10
2009,09,23,20,26,17.00
2009,09,23,20,27,16.90
2009,09,23,20,28,16.80
2009,09,23,20,29,16.80
2009,09,23,20,30,16.70
2009,09,23,20,31,16.70
2009,09,23,20,32,16.70
2009,09,23,20,33,16.60
2009,09,23,20,34,16.50
2009,09,23,20,35,16.50
2009,09,23,20,36,16.40
2009,09,23,20,37,16.40
2009,09,23,20,38,16.40
2009,09,23,20,39,16.30
2009,09,23,20,40,16.30
2009,09,23,20,41,16.30
2009,09,23,20,42,16.30
2009,09,23,20,43,16.20
2009,09,23,20,44,16.20
2009,09,23,20,45,16.20
2009,09,23,20,46,16.20
2009,09,23,20,47,16.10
2009,09,23,20,48,16.10
2009,09,23,20,49,16.10
2009,09,23,20,50,16.10
2009,09,23,20,51,16.10
2009,09,23,20,52,16.10
2009,09,23,20,53,16.10
2009,09,23,20,54,16.10
2009,09,23,20,55,16.10
2009,09,23,20,56,16.10
2009,09,23,20,57,16.10
2009,09,23,20,58,16.10
2009,09,23,20,59,16.10
2009,09,23,21,00,16.00
2009,09,23,21,01,16.00
2009,09,23,21,02,16.00
2009,09,23,21,03,16.00
2009,09,23,21,04,15.90
2009,09,23,21,05,15.90
2009,09,23,21,06,15.90
2009,09,23,21,07,15.90
2009,09,23,21,08,15.90
2009,09,23,21,09,15.80
2009,09,23,21,10,15.80
2009,09,23,21,11,15.80
2009,09,23,21,12,15.80
2009,09,23,21,13,15.80
2009,09,23,21,14,15.80
2009,09,23,21,15,15.70
2009,09,23,21,16,15.70
2009,09,23,21,17,15.70
2009,09,23,21,18,15.70
2009,09,23,21,19,15.70
2009,09,23,21,20,15.60
2009,09,23,21,21,15.60
2009,09,23,21,22,15.50
2009,09,23,21,23,15.50
2009,09,23,21,24,15.50
2009,09,23,21,25,15.40
2009,09,23,21,26,15.40
2009,09,23,21,27,15.40
2009,09,23,21,28,15.40
2009,09,23,21,29,15.40
2009,09,23,21,30,15.30
2009,09,23,21,31,15.30
2009,09,23,21,32,15.30
2009,09,23,21,33,15.30
2009,09,23,21,34,15.30
2009,09,23,21,35,15.30
2009,09,23,21,36,15.30
2009,09,23,21,37,15.30
2009,09,23,21,38,15.30
2009,09,23,21,39,15.30
2009,09,23,21,40,15.30
2009,09,23,21,41,15.30
2009,09,23,21,42,15.20
2009,09,23,21,43,15.20
2009,09,23,21,44,15.20
2009,09,23,21,45,15.20
2009,09,23,21,46,15.20
2009,09,23,21,47,15.20
2009,09,23,21,48,15.10
2009,09,23,21,49,15.10
2009,09,23,21,50,15.10
2009,09,23,21,51,15.10
2009,09,23,21,52,15.10
2009,09,23,21,53,15.00
2009,09,23,21,54,15.00
2009,09,23,21,55,15.00
2009,09,23,21,56,15.00
2009,09,23,21,57,15.00
2009,09,23,21,58,15.00
2009,09,23,21,59,15.00
2009,09,23,22,00,15.00
2009,09,23,22,01,15.00
2009,09,23,22,02,15.00
2009,09,23,22,03,15.00
2009,09,23,22,04,14.90
2009,09,23,22,05,14.90
2009,09,23,22,06,14.90
2009,09,23,22,07,14.90
2009,09,23,22,08,14.80
2009,09,23,22,09,14.80
2009,09,23,22,10,14.80
2009,09,23,22,11,14.80
2009,09,23,22,12,14.80
2009,09,23,22,13,14.80
2009,09,23,22,14,14.70
2009,09,23,22,15,14.70
2009,09,23,22,16,14.70
2009,09,23,22,17,14.70
2009,09,23,22,18,14.70
2009,09,23,22,19,14.70
2009,09,23,22,20,14.60
2009,09,23,22,21,14.60
2009,09,23,22,22,14.60
2009,09,23,22,23,14.60
2009,09,23,22,24,14.60
2009,09,23,22,25,14.60
2009,09,23,22,26,14.60
2009,09,23,22,27,14.50
2009,09,23,22,28,14.50
2009,09,23,22,29,14.40
2009,09,23,22,30,14.40
2009,09,23,22,31,14.40
2009,09,23,22,32,14.40
2009,09,23,22,33,14.30
2009,09,23,22,34,14.30
2009,09,23,22,35,14.30
2009,09,23,22,36,14.30
2009,09,23,22,37,14.30
2009,09,23,22,38,14.40
2009,09,23,22,39,14.40
2009,09,23,22,40,14.40
2009,09,23,22,41,14.40
2009,09,23,22,42,14.30
2009,09,23,22,43,14.30
2009,09,23,22,44,14.30
2009,09,23,22,45,14.30
2009,09,23,22,46,14.30
2009,09,23,22,47,14.30
2009,09,23,22,48,14.30
2009,09,23,22,49,14.30
2009,09,23,22,50,14.20
2009,09,23,22,51,14.20
2009,09,23,22,52,14.20
2009,09,23,22,53,14.10
2009,09,23,22,54,14.10
2009,09,23,22,55,14.10
2009,09,23,22,56,14.10
2009,09,23,22,57,14.10
2009,09,23,22,58,14.10
2009,09,23,22,59,14.10
2009,09,23,23,00,14.10
2009,09,23,23,01,14.10
2009,09,23,23,02,14.10
2009,09,23,23,03,14.10
2009,09,23,23,04,14.20
2009,09,23,23,05,14.20
2009,09,23,23,06,14.20
2009,09,23,23,07,14.20
2009,09,23,23,08,14.20
2009,09,23,23,09,14.20
2009,09,23,23,10,14.20
2009,09,23,23,11,14.20
2009,09,23,23,12,14.10
2009,09,23,23,13,14.10
2009,09,23,23,14,14.10
2009,09,23,23,15,14.00
2009,09,23,23,16,14.00
2009,09,23,23,17,13.90
2009,09,23,23,18,13.90
2009,09,23,23,19,13.90
2009,09,23,23,20,13.90
2009,09,23,23,21,13.80
2009,09,23,23,22,13.80
2009,09,23,23,23,13.80
2009,09,23,23,24,13.80
2009,09,23,23,25,13.80
2009,09,23,23,26,13.70
2009,09,23,23,27,13.70
2009,09,23,23,28,13.70
2009,09,23,23,29,13.70
2009,09,23,23,30,13.70
2009,09,23,23,31,13.70
2009,09,23,23,32,13.70
2009,09,23,23,33,13.70
2009,09,23,23,34,13.70
2009,09,23,23,35,13.70
2009,09,23,23,36,13.70
2009,09,23,23,37,13.70
2009,09,23,23,38,13.70
2009,09,23,23,39,13.70
2009,09,23,23,40,13.60
2009,09,23,23,41,13.60
2009,09,23,23,42,13.60
2009,09,23,23,43,13.60
2009,09,23,23,44,13.60
2009,09,23,23,45,13.60
2009,09,23,23,46,13.60
2009,09,23,23,47,13.60
2009,09,23,23,48,13.50
2009,09,23,23,49,13.50
2009,09,23,23,50,13.50
2009,09,23,23,51,13.50
2009,09,23,23,52,13.40
2009,09,23,23,53,13.40
2009,09,23,23,54,13.40
2009,09,23,23,55,13.40
2009,09,23,23,56,13.40
2009,09,23,23,57,13.40
2009,09,23,23,58,13.40
2009,09,23,23,59,13.40
